Home   Weather   Salzgitter   Past weeks

Flag for Germany Past Weather in Salzgitter, Lower Saxony, Germany — Yesterday and Last 2 Weeks

Now
32 °F

Passing clouds.


Feels Like: 27 °F
Forecast: 29 / 51 °F
Wind: 5 mph from Southwest

Location: Celle Airport

Current Time: Apr 26, 2017 at 4:26:04 am

Latest Report: Apr 26, 2017 at 3:20 am


Visibility: N/A

Pressure: 29.80 "Hg

Humidity: 93%

Dew Point: 30 °F

Location of SalzgitterLocation

Past Weather in Salzgitter — Graph

°F

Salzgitter Temperature Yesterday

Maximum temperature yesterday: 46 °F (at 12:20 am)
Minimum temperature yesterday: 34 °F (at 10:20 pm)
Average temperature yesterday: 41 °F

High & Low Weather Summary for the Past Weeks

 TemperatureHumidityPressure
High55 °F (Apr 21, 2:20 pm)100% (Apr 18, 6:20 am)30.63 "Hg (Apr 18, 6:20 am)
Low23 °F (Apr 20, 6:20 am)32% (Apr 20, 2:20 pm)29.62 "Hg (Apr 25, 4:20 am)
Average43 °F71%30.08 "Hg
* Reported Apr 11 2:20 am — Apr 26 2:20 am, Salzgitter, Weather by CustomWeather, © 2017

Note: Actual official high and low records may vary slightly from our data, if they occured in-between our weather recording intervals... More about our weather records

Advertising

Salzgitter Weather History for the Previous 24 Hours

Scroll right to see more
 ConditionsComfort  
Time TempWeatherWind HumidityBarometerVisibility
2:20 am
Wed, Apr 26
34 °FPassing clouds.5 mph87%29.80 "HgN/A
1:20 am34 °FPassing clouds.3 mph87%29.80 "HgN/A
12:20 am34 °FPassing clouds.1 mph93%29.80 "HgN/A
11:20 pm
Tue, Apr 25
34 °FPassing clouds.2 mph87%29.80 "HgN/A
10:20 pm34 °FPassing clouds.2 mph87%29.80 "HgN/A
9:20 pm37 °FPassing clouds.3 mph81%29.80 "HgN/A
8:20 pm41 °FScattered showers. Passing clouds.3 mph76%29.77 "HgN/A
7:20 pm43 °FPassing clouds.9 mph71%29.77 "HgN/A
6:20 pm43 °FPassing clouds.9 mph71%29.74 "HgN/A
5:20 pm43 °FScattered showers. Broken clouds.13 mph71%29.74 "HgN/A
4:20 pm43 °FPartly sunny.9 mph81%29.74 "HgN/A
3:20 pm41 °FSprinkles. Broken clouds.10 mph76%29.74 "HgN/A
2:38 pm37 °FSprinkles. Broken clouds.15 mph87%29.71 "HgN/A
2:25 pm41 °FSprinkles. Broken clouds.22 mph70%29.71 "Hg6 mi
1:50 pm43 °FSprinkles. Scattered clouds.20 mph66%29.68 "Hg6 mi
1:20 pm46 °FSprinkles. Scattered clouds.23 mph53%29.65 "HgN/A
12:30 pm46 °FRain showers. Partly sunny.16 mph50%29.65 "Hg5 mi
11:20 am45 °FPartly sunny.15 mph53%29.65 "HgN/A
10:20 am43 °FScattered clouds.12 mph71%29.62 "HgN/A
9:20 am43 °FBroken clouds.17 mph81%29.62 "HgN/A
8:46 am41 °FPartly sunny.14 mph87%29.62 "HgN/A
8:20 am41 °FLight rain. Broken clouds.7 mph87%29.62 "HgN/A
7:20 am39 °FBroken clouds.5 mph93%29.62 "HgN/A
6:20 am37 °FLight rain. Broken clouds.3 mph100%29.62 "Hg6 mi
5:20 am37 °FLight rain. Partly cloudy.No wind93%29.62 "Hg5 mi
4:20 am37 °FLight rain. Passing clouds.6 mph93%29.62 "HgN/A
Weather by CustomWeather, © 2017

See weather overviewHow to use our weather pages